Location: Fontevrault
(47.1823°N, 0.0493°E)
Time: 14:24:28
(UTC+00:00)

Cosmos 968 Rocket - Pass Details

Date: 16 June 2021
Orbit: 741 x 771 km, 74.0° (Epoch: 29 July)

Event Time Altitude Azimuth Distance (km) Brightness Sun altitude
Rises 22:23:19 0° 338° (NNW) 3,189 8.6 -16.1°
Reaches altitude 10° 22:25:41 10° 340° (NNW) 2,263 7.3 -16.3°
Maximum altitude 22:30:49 77° 67° (ENE) 767 3.4 -16.6°
Enters shadow 22:33:30 29° 150° (SSE) 1,355 4.2 -16.7°
